Waupaca, WI

12:33 PM CDT on June 22, 2017 (GMT -0500)
Waupaca Municipal

Weather History for KPCZ - January, 2012

Change the Weather History Date:

Monday, January 23, 2012

  Actual Average Record
Temperature  
Mean Temperature 32 °F -  
Max Temperature 35 °F 30 °F 45 °F (1989)
Min Temperature 28 °F 10 °F -31 °F (1963)
Degree Days  
Heating Degree Days 32    
Moisture  
Dew Point 28 °F    
Average Humidity 85    
Maximum Humidity 100    
Minimum Humidity 69    
Precipitation  
Precipitation 0.01 in - - ()
Sea Level Pressure  
Sea Level Pressure 29.47 in    
Wind  
Wind Speed 8 mph (WNW)    
Max Wind Speed 21 mph    
Max Gust Speed 29 mph    
Visibility 6 miles    
Events Rain , Snow    
Averages and records for this station are not official NWS values.
T = Trace of Precipitation, MM = Missing Value Source: NWS Daily Summary

Daily Weather History Graph

Daily Weather History Graph

Search for Another Location

Airport or City:

Trip Planner

Search our weather history database for the weather conditions in past years. The results will help you decide how hot, cold, wet, or windy it might be!

Date:

Astronomy

Jan. 23, 2012 Rise Set
Actual Time 7:23 AM CST 4:52 PM CST
Civil Twilight 6:51 AM CST 5:24 PM CST
Nautical Twilight 6:16 AM CST 5:59 PM CST
Astronomical Twilight 5:42 AM CST 6:34 PM CST
Moon 7:16 AM CST (1/23) 5:43 PM CST (1/23)
Length of Visible Light 10h 32m
Length of Day
9h 29m
New Moon, 0% of the Moon is Illuminated
Jan 23
New Moon
Jan 30
First Quarter
Feb 7
Full
Feb 14
Last Quarter
Feb 21
New

Hourly Weather History & Observations

Time (CST) Temp. Windchill Dew Point Humidity Pressure Visibility Wind Dir Wind Speed Gust Speed Precip Events Conditions
12:15 AM 32.0 °F 27.5 °F 32.0 °F 100% 29.46 in 1.0 mi NNE 4.6 mph - N/A   Overcast
12:35 AM 33.8 °F - 32.0 °F 93% 29.46 in 1.0 mi Calm Calm - N/A   Overcast
12:55 AM 33.8 °F - 32.0 °F 93% 29.45 in 1.2 mi Calm Calm - N/A   Overcast
1:15 AM 33.8 °F - 32.0 °F 93% 29.46 in 1.0 mi Calm Calm - N/A   Overcast
1:35 AM 33.8 °F 30.8 °F 32.0 °F 93% 29.46 in 1.0 mi NNE 3.5 mph - N/A   Drizzle
1:55 AM 33.8 °F 29.6 °F 32.0 °F 93% 29.44 in 1.8 mi North 4.6 mph - N/A   Overcast
2:15 AM 33.8 °F 27.7 °F 32.0 °F 93% 29.39 in 1.8 mi NNE 6.9 mph - N/A   Overcast
2:35 AM 33.8 °F 26.4 °F 32.0 °F 93% 29.35 in 2.5 mi NNE 9.2 mph - N/A   Overcast
2:55 AM 33.8 °F 27.0 °F 32.0 °F 93% 29.35 in 3.0 mi NNE 8.1 mph - N/A   Overcast
3:15 AM 33.8 °F 29.6 °F 32.0 °F 93% 29.35 in 3.0 mi North 4.6 mph - N/A   Overcast
3:55 AM 33.8 °F 27.7 °F 32.0 °F 93% 29.33 in 2.0 mi NNW 6.9 mph - N/A   Overcast
4:15 AM 33.8 °F 27.7 °F 32.0 °F 93% 29.33 in 1.8 mi NNW 6.9 mph - N/A   Drizzle
4:35 AM 33.8 °F 28.6 °F 32.0 °F 93% 29.32 in 2.0 mi North 5.8 mph - N/A Rain Light Rain
4:55 AM 33.8 °F 28.6 °F 32.0 °F 93% 29.31 in 2.5 mi North 5.8 mph - N/A Rain Rain
5:15 AM 33.8 °F 28.6 °F 32.0 °F 93% 29.29 in 4.0 mi North 5.8 mph - N/A Rain Rain
5:35 AM 33.8 °F 28.6 °F 32.0 °F 93% 29.29 in 5.0 mi North 5.8 mph - N/A   Light Drizzle
5:55 AM 33.8 °F 25.8 °F 32.0 °F 93% 29.26 in 5.0 mi North 10.4 mph - N/A   Overcast
6:35 AM 33.8 °F 30.8 °F 32.0 °F 93% 29.28 in 7.0 mi North 3.5 mph - N/A   Overcast
6:55 AM 33.8 °F 29.6 °F 32.0 °F 93% 29.29 in 7.0 mi NNW 4.6 mph - N/A   Overcast
7:15 AM 33.8 °F 28.6 °F 32.0 °F 93% 29.29 in 5.0 mi NW 5.8 mph - N/A Snow Light Snow
7:35 AM 33.8 °F 28.6 °F 32.0 °F 93% 29.28 in 3.0 mi NW 5.8 mph - 0.01 in Snow Light Snow
8:15 AM 33.8 °F 28.6 °F 32.0 °F 93% 29.29 in 1.8 mi NW 5.8 mph - N/A Snow Light Snow
8:35 AM 33.8 °F 28.6 °F 32.0 °F 93% 29.30 in 2.0 mi NW 5.8 mph - N/A Snow Light Snow
8:55 AM 33.8 °F 28.6 °F 32.0 °F 93% 29.31 in 5.0 mi WNW 5.8 mph - N/A Snow Light Snow
9:15 AM 33.8 °F 28.6 °F 32.0 °F 93% 29.32 in 5.0 mi WNW 5.8 mph - N/A Snow Light Snow
9:35 AM 33.8 °F 28.6 °F 32.0 °F 93% 29.33 in 10.0 mi WNW 5.8 mph - N/A   Overcast
9:55 AM 33.8 °F 26.4 °F 32.0 °F 93% 29.33 in 7.0 mi West 9.2 mph - N/A   Overcast
10:15 AM 33.8 °F 27.0 °F 32.0 °F 93% 29.34 in 4.0 mi West 8.1 mph - N/A   Overcast
10:35 AM 33.8 °F 25.3 °F 32.0 °F 93% 29.35 in 2.5 mi West 11.5 mph 16.1 mph N/A   Overcast
10:55 AM 35.6 °F 28.0 °F 32.0 °F 87% 29.35 in 4.0 mi WNW 10.4 mph - N/A Snow Light Snow
12:15 PM 32.0 °F 23.0 °F 30.2 °F 93% 29.36 in 7.0 mi West 11.5 mph 20.7 mph N/A   Overcast
12:55 PM 32.0 °F 22.1 °F 28.4 °F 87% 29.38 in 3.0 mi West 13.8 mph 17.3 mph N/A Snow Light Snow
1:15 PM 32.0 °F 22.5 °F 28.4 °F 87% 29.39 in 5.0 mi West 12.7 mph 19.6 mph N/A Snow Light Snow
1:35 PM 32.0 °F 21.6 °F 28.4 °F 87% 29.40 in 4.0 mi West 15.0 mph 21.9 mph N/A Snow Light Snow
1:55 PM 32.0 °F 22.1 °F 26.6 °F 80% 29.41 in 7.0 mi West 13.8 mph 21.9 mph N/A Snow Light Snow
2:15 PM 32.0 °F 21.2 °F 26.6 °F 80% 29.43 in 5.0 mi West 16.1 mph 23.0 mph N/A Snow Light Snow
2:35 PM 32.0 °F 21.6 °F 26.6 °F 80% 29.44 in 2.5 mi West 15.0 mph 24.2 mph N/A   Haze
2:55 PM 30.2 °F 18.9 °F 26.6 °F 86% 29.46 in 4.0 mi West 16.1 mph 25.3 mph N/A   Haze
3:15 PM 30.2 °F 18.1 °F 24.8 °F 80% 29.48 in 7.0 mi West 18.4 mph 24.2 mph N/A   Overcast
3:35 PM 30.2 °F 18.9 °F 23.0 °F 75% 29.50 in 10.0 mi West 16.1 mph 21.9 mph N/A   Overcast
3:55 PM 30.2 °F 19.8 °F 23.0 °F 75% 29.51 in 10.0 mi West 13.8 mph 26.5 mph N/A   Overcast
4:15 PM 30.2 °F 18.5 °F 23.0 °F 75% 29.53 in 10.0 mi West 17.3 mph 28.8 mph N/A   Overcast
4:35 PM 30.2 °F 20.8 °F 23.0 °F 75% 29.55 in 10.0 mi West 11.5 mph 20.7 mph N/A   Overcast
4:55 PM 30.2 °F 19.3 °F 23.0 °F 75% 29.56 in 7.0 mi West 15.0 mph 24.2 mph N/A   Overcast
5:15 PM 30.2 °F 18.5 °F 23.0 °F 75% 29.58 in 7.0 mi West 17.3 mph 24.2 mph N/A   Overcast
5:35 PM 30.2 °F 18.5 °F 23.0 °F 75% 29.60 in 10.0 mi West 17.3 mph 24.2 mph N/A   Overcast
5:55 PM 30.2 °F 18.9 °F 23.0 °F 75% 29.61 in 10.0 mi West 16.1 mph 24.2 mph N/A   Overcast
6:15 PM 30.2 °F 17.8 °F 21.2 °F 69% 29.62 in 10.0 mi West 19.6 mph 28.8 mph N/A   Overcast
6:35 PM 30.2 °F 18.5 °F 21.2 °F 69% 29.64 in 10.0 mi West 17.3 mph 24.2 mph N/A   Overcast
6:55 PM 30.2 °F 18.5 °F 21.2 °F 69% 29.65 in 10.0 mi West 17.3 mph 28.8 mph N/A   Overcast
7:15 PM 30.2 °F 19.8 °F 21.2 °F 69% 29.66 in 10.0 mi West 13.8 mph 24.2 mph N/A   Overcast
7:35 PM 30.2 °F 20.2 °F 21.2 °F 69% 29.66 in 10.0 mi West 12.7 mph 19.6 mph N/A   Overcast
7:55 PM 30.2 °F 18.5 °F 23.0 °F 75% 29.67 in 10.0 mi West 17.3 mph 21.9 mph N/A   Overcast
8:15 PM 30.2 °F 20.2 °F 23.0 °F 75% 29.68 in 10.0 mi West 12.7 mph - N/A   Overcast
8:35 PM 30.2 °F 19.3 °F 23.0 °F 75% 29.69 in 10.0 mi West 15.0 mph 24.2 mph N/A   Overcast
8:55 PM 30.2 °F 19.3 °F 23.0 °F 75% 29.71 in 10.0 mi West 15.0 mph 21.9 mph N/A   Overcast
9:35 PM 30.2 °F 18.9 °F 23.0 °F 75% 29.72 in 10.0 mi West 16.1 mph 21.9 mph N/A   Overcast
9:55 PM 30.2 °F 18.9 °F 23.0 °F 75% 29.73 in 10.0 mi West 16.1 mph - N/A   Overcast
10:15 PM 30.2 °F 20.2 °F 23.0 °F 75% 29.73 in 10.0 mi West 12.7 mph 21.9 mph N/A   Overcast
10:35 PM 30.2 °F 19.3 °F 23.0 °F 75% 29.74 in 10.0 mi West 15.0 mph 23.0 mph N/A   Overcast
10:55 PM 30.2 °F 18.9 °F 23.0 °F 75% 29.75 in 10.0 mi West 16.1 mph 24.2 mph N/A   Overcast
11:15 PM 30.2 °F 17.4 °F 23.0 °F 75% 29.76 in 10.0 mi West 20.7 mph - N/A   Overcast
11:35 PM 28.4 °F 15.8 °F 23.0 °F 80% 29.77 in 10.0 mi West 18.4 mph 25.3 mph N/A   Overcast